Henry Post Army Air Field (Fort Sill)
KFSI : now visible

Airfield :











YOU CAN JOIN US ON...

 
LOGIN :

Register | Disclaimer

   EN    FR    IT 

 









Legend :    VFR   Marginal VFR   IFR   Intensive IFR   Very Intensive IFR
Visi :
Ceiling :
>= 8 km
>= 3000ft
5 to 8 km
1000 to 3000 ft
1500m to 5 km
500 to 1000 ft
800 to 1500m
200 to 500 ft
< 800m
< 200 ft
Symbols :   Thunderstorms  Fog  Heavy snow  Heavy precipitations  Wind > 20 kt







- Airport Elevation : 1189 ft


KFSI - Henry Post Army Air Field (Fort Sill)

CURRENT METAR :
  • 210556Z AUTO 18009KT 10SM CLR 28/22 A2986 RMK AO2 SLP097 T02810223 10354 20281 403740241 50006

EXPIRED METARs :
  • 210456Z AUTO 17010KT 10SM CLR 29/22 A2987 RMK AO2 SLP102 T02850222
  • 210356Z AUTO 16010KT 10SM CLR 28/22 A2985 RMK AO2 SLP097 T02820215

Expired Forecast.
KZFW FIR / North America



MET'MAP, your aeronautical weather chart ! - Copyright ORBIFLY December 2007 - Disclaimer

ORBIFLY MET'MAP TEAM :

Programming & Development : Alexandra Zaïnal
Concept & Development : Baudouin d'Aumeries
Co-Development & Prog : Marc-Olivier Méhu
Technical & hardware support : Manuel Goepfert

Contact : metmap@orbifly.com




SOURCES & CREDITS :

   NOAA       Earth
Advisory